This is the latest recevied weather packets stored in our database for station/object KD2PO-13. If no packets are shown the sender has not sent any weather packets the latest 10 day(s).
| Time | Temp. | Humidity | Pressure | Rain* | Wind** | Luminosity | Snow |
|---|---|---|---|---|---|---|---|
| 1778017764 | 18.89° C | 72% | 0 hPa | 0 mm | - | - | - |
| 1778017465 | 18.89° C | 71% | 0 hPa | 0 mm | - | - | - |
| 1778017164 | 19.44° C | 69% | 0 hPa | 0 mm | - | - | - |
| 1778016864 | 19.44° C | 68% | 0 hPa | 0 mm | - | - | - |
| 1778016564 | 19.44° C | 68% | 0 hPa | 0 mm | - | - | - |
| 1778016264 | 19.44° C | 69% | 0 hPa | 0 mm | - | - | - |
| 1778015964 | 20° C | 68% | 0 hPa | 0 mm | - | - | - |
| 1778015664 | 20.56° C | 65% | 0 hPa | 0 mm | - | - | - |
| 1778015364 | 21.11° C | 65% | 0 hPa | 0 mm | - | - | - |
| 1778015064 | 21.11° C | 66% | 0 hPa | 0 mm | - | - | - |
| 1778014764 | 21.11° C | 67% | 0 hPa | 0 mm | - | - | - |
| 1778014463 | 20.56° C | 65% | 0 hPa | 0 mm | - | - | - |
| 1778014163 | 20.56° C | 65% | 0 hPa | 0 mm | - | - | - |
| 1778013564 | 20.56° C | 66% | 0 hPa | 0 mm | - | - | - |
| 1778012964 | 20.56° C | 68% | 0 hPa | 0 mm | - | - | - |
| 1778012664 | 20.56° C | 70% | 0 hPa | 0 mm | - | - | - |
| 1778012364 | 20° C | 69% | 0 hPa | 0.25 mm | - | - | - |
| 1778012064 | 19.44° C | 71% | 0 hPa | 0.25 mm | - | - | - |
| 1778011764 | 19.44° C | 73% | 0 hPa | 0.25 mm | - | - | - |
| 1778011464 | 19.44° C | 75% | 0 hPa | 0.25 mm | - | - | - |
| 1778010864 | 18.33° C | 76% | 0 hPa | 0.25 mm | - | - | - |
| 1778010564 | 18.33° C | 77% | 0 hPa | 0.25 mm | - | - | - |
| 1778010019 | 17.78° C | 79% | 0 hPa | 0.25 mm | - | - | - |
| 1778009719 | 17.78° C | 79% | 0 hPa | 0.25 mm | - | - | - |
| 1778009419 | 17.78° C | 78% | 0 hPa | 0.25 mm | - | - | - |
* Rain latest hour (hover to see other rain measurements)
** Current wind speed in m/s (hover to see current wind gust speed)